UAE276 RPLL-VHHH

Flight info

Callsign UAE276
Flight time N/A
Altitude 36000
Route CAB2R CAB A461 NOMAN V533 BETTY BETY3A
Aircraft B77W/H-SDE1E2E3FGHIJ2J3J4J5M1RWXY/LB1D1

Departure

Time 2026-05-04 03:08
Airport Ninoy Aquino International Airport (RPLL)

Arrival

Time N/A
Airport Hong Kong International Airport (VHHH)
Time Latitude Longitude Altitude Speed Heading
2026-05-04 02:23 14.51659 121.01514 73 ft 0 kts 45°
2026-05-04 02:51 14.51647 121.01501 63 ft 3 kts 45°
2026-05-04 02:51 14.51630 121.01484 63 ft 3 kts 45°
2026-05-04 02:51 14.51616 121.01469 63 ft 3 kts 45°
2026-05-04 02:52 14.51604 121.01452 63 ft 3 kts 89°
2026-05-04 02:52 14.51610 121.01431 63 ft 3 kts 132°
2026-05-04 02:52 14.51625 121.01415 63 ft 3 kts 135°
2026-05-04 02:52 14.51631 121.01409 63 ft 0 kts 135°
2026-05-04 02:57 14.51628 121.01412 63 ft 2 kts 135°
2026-05-04 02:57 14.51608 121.01434 73 ft 6 kts 135°
2026-05-04 02:57 14.51570 121.01472 65 ft 9 kts 135°
2026-05-04 02:58 14.51519 121.01526 64 ft 12 kts 135°
2026-05-04 02:58 14.51456 121.01590 65 ft 12 kts 135°
2026-05-04 02:58 14.51395 121.01654 68 ft 11 kts 135°
2026-05-04 02:58 14.51349 121.01702 65 ft 9 kts 135°
2026-05-04 02:59 14.51300 121.01752 63 ft 11 kts 135°
2026-05-04 02:59 14.51242 121.01812 65 ft 13 kts 135°
2026-05-04 02:59 14.51177 121.01878 68 ft 13 kts 135°
2026-05-04 02:59 14.51119 121.01938 63 ft 13 kts 135°
2026-05-04 03:00 14.51071 121.01987 65 ft 4 kts 142°
2026-05-04 03:00 14.51042 121.01985 64 ft 5 kts 207°
2026-05-04 03:00 14.51022 121.01953 63 ft 6 kts 238°
2026-05-04 03:00 14.50995 121.01907 63 ft 9 kts 240°
2026-05-04 03:01 14.50962 121.01847 63 ft 11 kts 240°
2026-05-04 03:01 14.50923 121.01776 63 ft 10 kts 240°
2026-05-04 03:01 14.50883 121.01706 67 ft 12 kts 240°
2026-05-04 03:01 14.50837 121.01622 67 ft 14 kts 240°
2026-05-04 03:02 14.50784 121.01528 64 ft 14 kts 240°
2026-05-04 03:02 14.50734 121.01437 66 ft 13 kts 240°
2026-05-04 03:02 14.50685 121.01348 65 ft 15 kts 240°
2026-05-04 03:02 14.50631 121.01249 63 ft 17 kts 240°
2026-05-04 03:03 14.50570 121.01139 65 ft 19 kts 238°
2026-05-04 03:03 14.50505 121.01025 63 ft 19 kts 240°
2026-05-04 03:03 14.50455 121.00935 66 ft 12 kts 240°
2026-05-04 03:03 14.50411 121.00853 63 ft 14 kts 240°
2026-05-04 03:04 14.50356 121.00757 64 ft 17 kts 239°
2026-05-04 03:04 14.50294 121.00649 63 ft 18 kts 239°
2026-05-04 03:04 14.50226 121.00529 62 ft 20 kts 241°
2026-05-04 03:04 14.50157 121.00402 68 ft 20 kts 239°
2026-05-04 03:05 14.50092 121.00285 63 ft 19 kts 240°
2026-05-04 03:05 14.50027 121.00169 63 ft 19 kts 240°
2026-05-04 03:05 14.49968 121.00063 69 ft 15 kts 240°
2026-05-04 03:05 14.49934 121.00001 63 ft 8 kts 240°
2026-05-04 03:06 14.49888 120.99968 66 ft 9 kts 185°
2026-05-04 03:06 14.49829 120.99993 66 ft 10 kts 141°
2026-05-04 03:06 14.49816 121.00060 67 ft 11 kts 63°
2026-05-04 03:06 14.49845 121.00118 65 ft 0 kts 57°
2026-05-04 03:07 14.49846 121.00118 65 ft 0 kts 57°
2026-05-04 03:07 14.49847 121.00120 74 ft 1 kts 57°
2026-05-04 03:07 14.49885 121.00186 65 ft 38 kts 60°
2026-05-04 03:07 14.50160 121.00680 64 ft 117 kts 60°
2026-05-04 03:08 14.50660 121.01615 109 ft 172 kts 64°
2026-05-04 03:08 14.51268 121.02704 637 ft 183 kts 62°
2026-05-04 03:08 14.51951 121.03879 1164 ft 197 kts 60°
2026-05-04 03:08 14.52644 121.05094 1999 ft 190 kts 61°
2026-05-04 03:09 14.53326 121.06349 2436 ft 214 kts 62°
2026-05-04 03:09 14.54097 121.07758 2764 ft 239 kts 61°
2026-05-04 03:09 14.54927 121.09263 3521 ft 245 kts 61°
2026-05-04 03:09 14.55787 121.10813 4309 ft 251 kts 61°
2026-05-04 03:10 14.56788 121.12312 5111 ft 259 kts 44°
2026-05-04 03:10 14.58368 121.13242 5982 ft 267 kts 19°
2026-05-04 03:10 14.60221 121.13498 6859 ft 273 kts
2026-05-04 03:10 14.62137 121.13485 7620 ft 278 kts
2026-05-04 03:11 14.64084 121.13481 8379 ft 282 kts
2026-05-04 03:11 14.66038 121.13485 9149 ft 286 kts
2026-05-04 03:11 14.68044 121.13494 9916 ft 291 kts
2026-05-04 03:11 14.70091 121.13471 10457 ft 300 kts 356°
2026-05-04 03:12 14.71986 121.12999 10599 ft 325 kts 342°
2026-05-04 03:12 14.74188 121.12142 10799 ft 351 kts 341°
2026-05-04 03:12 14.76553 121.11240 11056 ft 373 kts 342°
2026-05-04 03:12 14.79034 121.10318 11667 ft 384 kts 342°
2026-05-04 03:13 14.81577 121.09390 12439 ft 391 kts 342°
2026-05-04 03:13 14.84163 121.08458 13268 ft 396 kts 342°
2026-05-04 03:13 14.86787 121.07516 14072 ft 402 kts 342°
2026-05-04 03:13 14.89447 121.06581 14811 ft 405 kts 345°
2026-05-04 03:14 14.92180 121.06069 15446 ft 408 kts 357°
2026-05-04 03:14 14.95027 121.05899 16147 ft 413 kts 359°
2026-05-04 03:14 14.97913 121.05773 16870 ft 417 kts 359°
2026-05-04 03:14 15.00827 121.05639 17611 ft 421 kts 358°
2026-05-04 03:15 15.03773 121.05480 18300 ft 426 kts 357°
2026-05-04 03:15 15.06739 121.05298 18933 ft 430 kts 357°
2026-05-04 03:15 15.09740 121.05099 19544 ft 434 kts 356°
2026-05-04 03:15 15.12766 121.04889 20146 ft 438 kts 356°
2026-05-04 03:16 15.15783 121.04677 20745 ft 442 kts 356°
2026-05-04 03:16 15.18861 121.04460 21346 ft 446 kts 356°
2026-05-04 03:16 15.21971 121.04241 21943 ft 450 kts 356°
2026-05-04 03:16 15.25113 121.04019 22497 ft 455 kts 356°
2026-05-04 03:17 15.28286 121.03796 23044 ft 459 kts 356°
2026-05-04 03:17 15.31480 121.03572 23619 ft 462 kts 356°
2026-05-04 03:17 15.34699 121.03347 24131 ft 464 kts 356°
2026-05-04 03:17 15.37918 121.03122 24689 ft 465 kts 355°
2026-05-04 03:18 15.41115 121.02897 25125 ft 469 kts 355°
2026-05-04 03:18 15.44391 121.02667 25517 ft 474 kts 355°
2026-05-04 03:18 15.47678 121.02358 25911 ft 476 kts 349°
2026-05-04 03:18 15.50832 121.01326 26251 ft 476 kts 333°
2026-05-04 03:19 15.53774 120.99720 26633 ft 480 kts 330°
2026-05-04 03:19 15.56713 120.98062 27054 ft 483 kts 330°
2026-05-04 03:19 15.59677 120.96402 27508 ft 485 kts 331°
2026-05-04 03:19 15.62669 120.94752 27950 ft 488 kts 331°
2026-05-04 03:20 15.65642 120.93139 28364 ft 491 kts 331°
2026-05-04 03:20 15.68682 120.91509 28841 ft 492 kts 331°
2026-05-04 03:20 15.71733 120.89883 29251 ft 495 kts 331°
2026-05-04 03:20 15.74811 120.88247 29596 ft 498 kts 331°
2026-05-04 03:21 15.77907 120.86603 29915 ft 501 kts 331°
2026-05-04 03:21 15.81015 120.84952 30253 ft 503 kts 331°
2026-05-04 03:21 15.83074 120.83856 30551 ft 501 kts 331°
2026-05-04 03:21 15.86166 120.82211 31072 ft 498 kts 331°
2026-05-04 03:22 15.89241 120.80573 31588 ft 495 kts 330°
2026-05-04 03:22 15.92295 120.78945 32090 ft 493 kts 330°
2026-05-04 03:22 15.95341 120.77321 32564 ft 491 kts 330°
2026-05-04 03:22 15.99356 120.75177 33196 ft 489 kts 330°
2026-05-04 03:23 16.01362 120.74106 33525 ft 488 kts 330°
2026-05-04 03:23 16.04370 120.72500 33991 ft 486 kts 330°
2026-05-04 03:23 16.07376 120.70894 34376 ft 485 kts 330°
2026-05-04 03:23 16.10368 120.69295 34721 ft 484 kts 329°
2026-05-04 03:24 16.14373 120.67153 35169 ft 484 kts 329°
2026-05-04 03:26 16.18426 120.64984 35653 ft 483 kts 329°
2026-05-04 03:26 16.21409 120.63388 35991 ft 483 kts 329°
2026-05-04 03:27 16.24415 120.61778 35944 ft 487 kts 329°
2026-05-04 03:27 16.30379 120.58586 35993 ft 482 kts 329°
2026-05-04 03:28 16.36305 120.55412 35964 ft 476 kts 329°
2026-05-04 03:28 16.41179 120.52798 35975 ft 474 kts 329°
2026-05-04 03:29 16.47297 120.49511 35974 ft 482 kts 329°
2026-05-04 03:29 16.53284 120.46296 35966 ft 485 kts 329°
2026-05-04 03:30 16.59244 120.43094 35985 ft 485 kts 329°
2026-05-04 03:30 16.62246 120.41481 35969 ft 485 kts 329°
2026-05-04 03:32 16.65367 120.39802 35949 ft 484 kts 329°
2026-05-04 03:33 16.71212 120.36388 35951 ft 479 kts 322°
2026-05-04 03:33 16.76337 120.32040 35954 ft 471 kts 311°
2026-05-04 03:34 16.80810 120.27144 35950 ft 469 kts 310°
2026-05-04 03:34 16.85129 120.22340 35939 ft 469 kts 310°
2026-05-04 03:35 16.89550 120.17454 35976 ft 468 kts 310°
2026-05-04 03:35 16.94029 120.12530 35926 ft 470 kts 310°
2026-05-04 03:36 16.98538 120.07580 35939 ft 471 kts 310°
2026-05-04 03:36 17.03023 120.02651 35940 ft 471 kts 310°
2026-05-04 03:37 17.07541 119.97682 35944 ft 472 kts 310°
2026-05-04 03:37 17.12063 119.92703 35942 ft 472 kts 310°
2026-05-04 03:38 17.16586 119.87720 35935 ft 472 kts 310°
2026-05-04 03:38 17.21078 119.82768 35937 ft 472 kts 310°
2026-05-04 03:39 17.25597 119.77782 35940 ft 472 kts 310°
2026-05-04 03:39 17.30111 119.72797 35932 ft 472 kts 310°
2026-05-04 03:40 17.34626 119.67807 35943 ft 472 kts 310°
2026-05-04 03:40 17.36319 119.65935 35942 ft 472 kts 310°
2026-05-04 03:41 17.40831 119.60943 35939 ft 472 kts 310°
2026-05-04 03:41 17.45338 119.55954 35943 ft 472 kts 310°
2026-05-04 03:42 17.49844 119.50961 35940 ft 471 kts 310°
2026-05-04 03:42 17.54316 119.46002 35945 ft 471 kts 310°
2026-05-04 03:43 17.58815 119.41009 35946 ft 471 kts 310°
2026-05-04 03:43 17.63315 119.36012 35943 ft 471 kts 310°
2026-05-04 03:44 17.67811 119.31015 35952 ft 471 kts 310°
2026-05-04 03:44 17.72272 119.26052 35946 ft 471 kts 310°
2026-05-04 03:45 17.76759 119.21057 35960 ft 470 kts 310°
2026-05-04 03:45 17.81236 119.16070 35951 ft 469 kts 310°
2026-05-04 03:46 17.85703 119.11090 35951 ft 468 kts 310°
2026-05-04 03:46 17.90129 119.06150 35953 ft 467 kts 310°
2026-05-04 03:47 17.94578 119.01181 35948 ft 467 kts 310°
2026-05-04 03:47 17.99026 118.96210 35965 ft 466 kts 310°
2026-05-04 03:48 18.03465 118.91247 35958 ft 466 kts 310°
2026-05-04 03:48 18.07875 118.86315 35962 ft 466 kts 310°
2026-05-04 03:49 18.12310 118.81349 35976 ft 465 kts 310°
2026-05-04 03:49 18.16739 118.76385 35964 ft 465 kts 310°
2026-05-04 03:50 18.21131 118.71459 35962 ft 464 kts 310°
2026-05-04 03:50 18.25539 118.66509 35966 ft 463 kts 310°
2026-05-04 03:51 18.29940 118.61565 35966 ft 463 kts 310°
2026-05-04 03:51 18.34341 118.56617 35967 ft 463 kts 310°
2026-05-04 03:52 18.38739 118.51668 35971 ft 463 kts 310°
2026-05-04 03:52 18.43103 118.46753 35974 ft 463 kts 310°
2026-05-04 03:53 18.47498 118.41798 35976 ft 463 kts 310°
2026-05-04 03:53 18.51895 118.36839 35978 ft 463 kts 310°
2026-05-04 03:54 18.56296 118.31870 35975 ft 463 kts 310°
2026-05-04 03:54 18.60690 118.26905 35977 ft 463 kts 310°
2026-05-04 03:55 18.65055 118.21970 35981 ft 463 kts 310°
2026-05-04 03:55 18.69444 118.17003 35980 ft 463 kts 310°
2026-05-04 03:56 18.73834 118.12030 35983 ft 463 kts 310°
2026-05-04 03:56 18.78222 118.07056 35984 ft 463 kts 310°
2026-05-04 03:57 18.82586 118.02105 35983 ft 463 kts 310°
2026-05-04 03:57 18.86972 117.97124 35992 ft 463 kts 310°
2026-05-04 03:58 18.93539 117.89660 35979 ft 462 kts 310°
2026-05-04 03:58 18.97882 117.84718 35984 ft 461 kts 310°
2026-05-04 03:59 19.02105 117.79909 35990 ft 461 kts 310°
2026-05-04 03:59 19.06463 117.74942 35989 ft 461 kts 310°
2026-05-04 04:00 19.10817 117.69971 35989 ft 461 kts 310°
2026-05-04 04:00 19.15141 117.65030 35993 ft 460 kts 310°
2026-05-04 04:01 19.16607 117.63355 35995 ft 460 kts 310°